Vorticity
3 2 2 3 4 4 5 5 5 5 5 6 6 7 8 9 12 15 17 18 15 16 21 26 27 32 48 42 19 16 21 17 16 22 20 21 29 24 17 14 13 9 6 7 3 4 12 6 -6 -2 6 5
4 3 3 4 4 3 4 4 4 4 4 5 6 7 8 9 10 13 16 18 15 14 17 23 23 29 49 51 30 17 27 32 16 10 10 9 21 26 25 20 16 14 8 8 6 2 9 14 5 -7 -2 7
5 5 4 4 4 3 3 4 4 4 4 5 6 6 7 8 9 11 14 18 17 13 12 20 21 21 44 61 47 17 2 20 31 17 3 1 4 -1 5 19 17 16 18 16 13 4 1 11 15 5 -6 -0
6 6 5 5 4 3 2 3 4 3 4 5 6 7 8 8 8 9 12 16 18 15 10 16 23 16 31 62 64 40 -1 -22 -1 19 18 6 0 -4 -2 16 21 17 19 15 12 3 -7 4 15 15 4 -8
8 8 7 6 4 3 3 3 3 3 3 4 6 7 8 9 8 7 9 14 17 18 12 9 21 18 20 54 69 58 29 -14 -32 -18 5 8 -0 9 16 18 21 23 23 7 -3 -1 -3 5 13 14 13 -0
8 8 7 6 5 4 4 3 2 2 3 4 5 7 8 11 10 7 5 10 16 18 16 7 14 21 14 41 73 69 41 12 -5 -24 -19 4 6 13 24 21 20 24 28 22 5 -0 2 4 11 12 12 11
8 8 8 7 5 5 4 3 3 2 3 3 4 6 7 11 11 9 4 6 13 17 19 10 7 19 16 28 65 81 54 17 10 4 -13 -6 2 4 14 15 15 22 25 31 30 16 8 2 8 14 8 10
7 8 8 7 6 5 5 4 4 3 2 3 3 5 6 10 13 11 6 3 9 15 19 14 7 12 16 25 54 77 73 37 8 9 3 -12 -13 -8 4 5 -5 5 15 19 29 29 21 7 -1 9 12 8
5 7 7 6 6 6 6 6 5 4 3 3 3 5 6 9 13 12 9 4 4 13 19 15 8 11 12 21 51 71 73 56 18 3 9 3 5 14 16 9 -12 -18 -4 3 8 20 32 27 6 -3 5 8
4 5 5 4 5 5 6 6 6 6 4 5 4 5 6 8 12 13 11 7 3 8 18 18 8 9 13 17 45 70 69 60 37 10 -0 4 20 37 34 11 -5 -13 -12 -4 -6 -4 15 35 35 12 -2 3
2 2 3 2 3 4 5 6 6 7 6 6 6 5 7 8 11 13 11 8 5 6 14 19 11 6 10 20 40 62 68 57 49 33 1 -1 7 13 27 11 -4 3 -0 2 0 -9 -7 7 33 39 18 6
1 1 2 2 2 3 3 5 6 7 7 7 7 6 6 8 10 11 12 9 6 5 11 17 12 8 7 20 41 51 64 58 46 50 19 0 -2 -18 5 18 1 6 8 8 9 3 -2 -10 0 27 33 22
2 2 3 3 3 3 2 4 5 6 7 8 8 7 7 8 10 10 12 11 8 5 9 17 11 8 7 18 46 43 51 62 42 51 44 10 1 -16 -16 6 7 3 4 6 10 9 7 -0 -7 1 18 25
4 3 4 4 4 4 3 3 4 5 6 8 8 9 8 8 10 9 12 10 10 8 6 16 12 8 8 15 49 45 34 59 47 40 56 35 10 -7 -24 -16 1 4 -0 -1 2 10 8 5 7 2 4 13
5 4 4 5 6 5 4 3 4 5 6 8 9 10 9 9 10 8 11 12 9 10 6 12 13 7 8 13 45 54 27 44 55 35 47 58 27 -6 -20 -25 -14 0 4 2 -2 7 12 4 8 12 9 10
4 4 5 6 7 6 5 4 4 5 5 7 9 10 11 9 11 8 9 12 10 10 8 9 12 7 7 12 36 58 36 30 50 41 34 59 51 6 -17 -27 -26 -8 1 3 1 4 13 8 2 6 8 13
5 6 8 8 7 6 5 5 4 5 5 7 9 10 12 9 10 11 8 11 11 10 9 7 10 9 6 9 29 51 46 32 40 44 30 42 63 36 -3 -26 -33 -16 -6 -6 -1 3 9 11 5 2 1 5
6 7 9 8 7 5 4 5 4 5 5 7 10 10 12 12 10 11 9 10 11 10 10 9 7 8 7 6 23 43 46 41 38 38 33 27 48 59 31 -4 -26 -25 -12 -10 -6 4 8 10 9 9 6 1
7 7 8 7 6 5 4 5 5 5 6 6 9 11 11 12 11 11 10 9 11 12 9 9 8 6 8 5 16 37 39 44 48 36 32 26 27 50 55 35 2 -26 -23 -13 -10 2 8 7 12 14 12 6
7 6 6 6 5 5 5 6 6 5 6 8 9 12 13 12 11 11 11 10 9 12 10 8 9 4 7 7 10 31 34 35 57 49 28 25 20 31 52 57 37 -7 -26 -18 -19 -10 1 2 9 16 16 12
6 5 5 5 4 5 6 6 7 7 7 9 9 10 13 12 12 12 11 12 10 11 11 8 9 5 4 9 6 22 36 26 48 67 40 20 15 19 39 56 59 27 -12 -22 -25 -24 -11 -3 3 12 16 16
5 5 4 4 5 5 7 7 7 9 8 9 10 10 13 13 12 13 11 12 11 10 11 9 8 7 2 8 8 13 33 27 31 66 62 31 13 9 23 44 63 58 12 -20 -22 -26 -24 -11 -1 6 11 15
4 5 4 4 6 6 6 8 8 9 10 10 11 11 12 13 11 13 13 12 13 10 10 10 6 7 4 4 10 10 24 30 23 49 70 53 26 6 10 27 49 70 44 -4 -18 -20 -29 -25 -13 -5 4 12
4 4 5 5 6 7 6 7 9 10 12 12 11 11 11 13 13 12 14 12 13 11 8 10 6 5 7 3 7 10 17 28 24 34 60 63 46 19 5 14 31 56 63 32 2 -8 -19 -27 -23 -15 -5 6
5 4 6 7 6 7 7 7 10 10 13 13 10 11 11 12 13 12 14 13 12 13 8 8 8 4 6 5 6 10 14 23 24 25 44 57 56 39 13 8 20 35 55 54 29 7 -4 -16 -25 -20 -13 -7
6 7 6 7 7 7 8 7 9 11 13 14 10 9 12 11 13 14 13 14 12 13 10 6 8 6 5 6 6 9 12 19 24 21 30 44 51 51 30 10 12 25 42 54 46 23 6 -2 -16 -21 -14 -18
6 8 7 7 8 7 8 8 9 13 14 14 10 9 12 11 12 15 14 15 13 12 11 7 6 6 5 6 6 8 11 16 23 21 22 31 40 50 47 26 9 13 29 48 58 39 13 8 -3 -17 -15 -18
7 7 7 7 8 7 8 9 8 14 17 14 10 8 12 12 12 16 16 15 14 12 11 7 6 6 5 6 7 7 11 14 20 22 20 23 29 38 48 47 27 10 13 32 52 54 36 18 4 -3 -9 -14
7 7 7 6 7 7 8 10 9 14 19 14 9 8 11 13 12 16 18 15 14 13 11 8 5 6 5 6 7 7 9 13 17 21 20 20 23 26 33 47 49 31 13 15 31 51 60 38 15 17 6 -13
7 6 8 7 6 7 7 10 12 15 21 15 7 8 10 12 13 16 18 16 14 12 11 9 5 5 5 5 7 8 9 11 15 19 20 19 21 23 23 28 45 51 34 19 16 26 52 57 36 27 16 0
7 6 7 7 6 7 8 11 14 16 21 16 6 7 10 11 13 16 18 16 14 13 11 9 6 5 5 5 7 8 9 10 13 17 20 19 18 20 23 19 24 42 47 39 27 13 25 55 57 37 25 19
Height
5753 5751 5748 5746 5743 5740 5736 5733 5729 5725 5722 5718 5714 5711 5707 5704 5700 5696 5693 5689 5687 5684 5682 5680 5677 5673 5673 5676 5678 5678 5675 5676 5679 5680 5681 5684 5687 5692 5697 5700 5707 5716 5721 5725 5728 5730 5735 5742 5746 5749 5751 5755
5747 5745 5742 5740 5737 5734 5730 5726 5723 5719 5716 5712 5708 5704 5700 5697 5693 5689 5685 5682 5679 5676 5674 5672 5669 5666 5664 5664 5669 5672 5671 5669 5669 5671 5674 5677 5680 5683 5688 5691 5695 5703 5709 5713 5717 5720 5725 5731 5736 5741 5743 5746
5741 5739 5736 5733 5730 5727 5724 5720 5716 5713 5709 5705 5701 5698 5694 5690 5686 5682 5678 5674 5671 5668 5666 5664 5662 5659 5656 5655 5657 5662 5664 5664 5661 5660 5663 5669 5672 5676 5680 5683 5684 5690 5697 5702 5706 5710 5715 5720 5726 5732 5735 5737
5736 5733 5730 5727 5724 5721 5717 5713 5710 5706 5702 5699 5695 5691 5687 5683 5679 5675 5671 5667 5663 5660 5657 5654 5653 5650 5648 5646 5646 5649 5654 5655 5655 5653 5652 5655 5661 5667 5672 5675 5675 5678 5685 5690 5694 5700 5705 5709 5715 5721 5726 5730
5730 5727 5724 5721 5718 5715 5711 5707 5703 5700 5696 5692 5688 5684 5680 5676 5672 5668 5664 5660 5656 5652 5648 5645 5642 5640 5638 5637 5635 5637 5641 5642 5645 5648 5647 5645 5649 5657 5663 5666 5666 5667 5672 5678 5683 5688 5694 5699 5704 5710 5716 5721
5724 5721 5718 5715 5712 5709 5705 5701 5697 5693 5689 5685 5681 5677 5672 5668 5664 5660 5656 5652 5648 5644 5640 5637 5633 5630 5627 5626 5624 5625 5628 5630 5632 5637 5641 5639 5640 5647 5653 5656 5657 5658 5661 5666 5671 5677 5683 5689 5694 5700 5706 5711
5718 5715 5712 5709 5706 5702 5698 5695 5691 5687 5683 5679 5674 5670 5665 5661 5657 5653 5648 5644 5640 5636 5632 5628 5624 5620 5616 5614 5612 5612 5615 5618 5621 5624 5630 5632 5632 5637 5643 5647 5648 5650 5651 5655 5660 5665 5672 5679 5684 5689 5695 5700
5713 5710 5707 5703 5700 5696 5692 5688 5684 5680 5676 5672 5667 5663 5658 5654 5650 5645 5641 5636 5632 5627 5623 5619 5616 5611 5606 5602 5600 5600 5601 5604 5608 5612 5617 5622 5623 5626 5633 5638 5639 5641 5643 5646 5649 5654 5660 5668 5674 5679 5684 5690
5707 5704 5701 5698 5694 5690 5686 5682 5678 5673 5669 5664 5660 5655 5651 5646 5641 5637 5633 5628 5624 5619 5615 5610 5606 5602 5596 5591 5588 5588 5589 5590 5594 5599 5605 5610 5614 5615 5620 5626 5628 5631 5634 5637 5641 5644 5650 5656 5663 5669 5674 5680
5702 5699 5695 5692 5688 5684 5680 5675 5671 5666 5662 5657 5652 5647 5643 5638 5633 5628 5624 5620 5616 5612 5607 5602 5597 5592 5587 5581 5576 5575 5576 5578 5580 5585 5591 5597 5602 5603 5606 5612 5616 5620 5624 5628 5632 5636 5640 5646 5651 5658 5664 5669
5696 5693 5690 5686 5682 5679 5674 5669 5665 5660 5655 5650 5645 5641 5636 5631 5626 5621 5616 5612 5607 5603 5599 5594 5589 5583 5577 5571 5565 5562 5563 5566 5567 5571 5578 5584 5590 5592 5593 5599 5604 5608 5613 5617 5622 5626 5631 5636 5642 5647 5653 5659
5691 5687 5684 5681 5677 5672 5668 5663 5659 5654 5649 5644 5639 5634 5629 5624 5619 5614 5609 5604 5600 5595 5591 5586 5581 5575 5568 5562 5556 5551 5550 5553 5555 5558 5563 5570 5578 5581 5581 5585 5592 5597 5601 5606 5611 5616 5621 5627 5633 5637 5642 5648
5685 5682 5678 5675 5671 5666 5662 5657 5652 5647 5642 5637 5632 5627 5622 5617 5612 5607 5601 5597 5592 5587 5583 5577 5573 5567 5560 5554 5547 5542 5540 5541 5543 5545 5550 5556 5564 5571 5572 5573 5579 5586 5591 5595 5600 5606 5611 5616 5623 5629 5633 5638
5680 5676 5673 5669 5664 5660 5655 5650 5646 5641 5636 5631 5626 5620 5615 5610 5605 5599 5594 5589 5584 5579 5574 5569 5564 5559 5552 5546 5540 5534 5530 5530 5532 5534 5537 5542 5549 5557 5562 5563 5567 5573 5580 5585 5590 5596 5602 5606 5612 5618 5624 5629
5674 5671 5667 5663 5658 5654 5649 5644 5639 5634 5629 5624 5619 5614 5608 5603 5597 5592 5587 5582 5577 5572 5567 5562 5556 5551 5545 5539 5532 5527 5523 5521 5522 5524 5526 5530 5535 5542 5549 5554 5558 5563 5569 5575 5580 5585 5591 5597 5602 5608 5614 5620
5669 5665 5661 5656 5652 5648 5643 5638 5633 5628 5623 5618 5612 5607 5601 5596 5590 5584 5579 5574 5570 5565 5559 5555 5549 5544 5538 5531 5525 5520 5516 5513 5513 5514 5517 5520 5523 5528 5536 5543 5548 5554 5559 5565 5570 5576 5581 5587 5593 5598 5604 5610
5663 5659 5654 5650 5645 5641 5636 5631 5626 5621 5616 5611 5605 5600 5594 5589 5583 5577 5572 5567 5562 5558 5553 5548 5542 5537 5531 5524 5518 5513 5509 5506 5505 5505 5507 5510 5513 5516 5522 5530 5538 5544 5550 5555 5561 5567 5571 5577 5583 5589 5595 5600
5657 5653 5648 5643 5639 5634 5629 5624 5619 5614 5609 5604 5599 5593 5587 5582 5576 5570 5565 5560 5555 5550 5546 5541 5536 5530 5524 5518 5511 5505 5501 5499 5497 5497 5498 5501 5504 5507 5510 5516 5526 5534 5540 5546 5552 5558 5563 5567 5573 5579 5586 5591
5650 5646 5641 5637 5632 5627 5622 5618 5613 5608 5602 5597 5592 5586 5580 5575 5569 5563 5558 5553 5548 5543 5539 5534 5529 5524 5518 5512 5505 5499 5494 5490 5489 5488 5489 5491 5495 5498 5499 5504 5514 5522 5529 5537 5543 5549 5554 5559 5564 5570 5576 5581
5644 5639 5635 5630 5625 5620 5615 5611 5606 5601 5596 5590 5585 5579 5574 5568 5562 5557 5551 5546 5541 5537 5532 5527 5523 5518 5512 5506 5500 5493 5487 5483 5480 5478 5480 5483 5485 5489 5491 5493 5501 5511 5519 5527 5534 5540 5546 5550 5555 5561 5566 5572
5637 5632 5628 5623 5619 5614 5609 5604 5599 5594 5588 5583 5578 5572 5567 5561 5555 5550 5545 5539 5535 5530 5526 5521 5516 5512 5507 5501 5495 5488 5482 5476 5472 5470 5470 5473 5475 5479 5483 5485 5489 5499 5508 5516 5524 5532 5537 5541 5546 5552 5557 5562
5631 5626 5621 5616 5612 5607 5603 5598 5592 5587 5581 5576 5571 5565 5560 5555 5549 5544 5538 5533 5528 5524 5519 5515 5510 5506 5501 5496 5490 5484 5477 5471 5466 5463 5461 5463 5466 5468 5473 5476 5480 5488 5497 5503 5512 5521 5527 5533 5537 5542 5547 5552
5624 5620 5615 5610 5605 5601 5596 5591 5585 5580 5574 5569 5564 5558 5553 5547 5542 5537 5532 5527 5522 5517 5513 5508 5504 5500 5496 5491 5485 5479 5473 5467 5462 5458 5455 5454 5457 5459 5462 5465 5469 5476 5485 5491 5499 5508 5516 5523 5528 5532 5536 5541
5618 5613 5609 5604 5599 5594 5588 5583 5578 5572 5567 5562 5556 5551 5546 5540 5535 5530 5525 5520 5515 5511 5506 5502 5498 5493 5490 5485 5480 5475 5469 5463 5458 5454 5451 5448 5449 5450 5451 5453 5457 5464 5473 5479 5485 5495 5504 5511 5516 5521 5526 5532
5612 5607 5602 5597 5592 5587 5581 5576 5570 5565 5559 5555 5549 5544 5539 5533 5528 5522 5518 5514 5509 5504 5500 5496 5492 5487 5483 5479 5475 5470 5464 5459 5455 5451 5448 5445 5443 5444 5444 5444 5447 5453 5460 5468 5475 5483 5492 5499 5504 5510 5516 5522
5605 5600 5595 5590 5585 5580 5574 5568 5563 5557 5552 5547 5542 5537 5532 5527 5521 5516 5511 5507 5503 5498 5494 5490 5486 5481 5477 5473 5469 5465 5460 5455 5451 5447 5444 5442 5440 5439 5439 5438 5439 5444 5450 5457 5465 5472 5479 5487 5493 5499 5506 5513
5598 5593 5589 5584 5578 5573 5567 5561 5555 5550 5545 5540 5535 5530 5525 5520 5515 5509 5504 5500 5496 5492 5488 5484 5480 5476 5472 5468 5464 5460 5456 5451 5447 5443 5440 5438 5437 5435 5435 5434 5434 5435 5440 5446 5454 5461 5468 5475 5481 5489 5496 5503
5592 5587 5582 5577 5571 5565 5560 5553 5548 5543 5538 5533 5528 5522 5517 5513 5508 5503 5498 5494 5490 5486 5482 5478 5474 5470 5466 5462 5459 5455 5451 5447 5443 5439 5437 5435 5433 5432 5431 5431 5430 5430 5432 5436 5442 5450 5457 5463 5470 5478 5485 5492
5585 5580 5575 5569 5564 5558 5552 5546 5540 5535 5531 5526 5521 5516 5511 5506 5501 5496 5492 5487 5484 5480 5476 5472 5468 5465 5461 5457 5453 5450 5447 5443 5439 5436 5433 5431 5429 5429 5428 5427 5427 5427 5428 5429 5432 5439 5446 5452 5458 5466 5475 5481
5578 5573 5567 5562 5556 5550 5545 5539 5532 5527 5523 5518 5514 5510 5504 5499 5495 5490 5486 5481 5477 5474 5470 5467 5463 5459 5455 5452 5448 5445 5442 5439 5436 5432 5429 5427 5425 5425 5424 5424 5424 5423 5424 5424 5425 5429 5435 5442 5448 5454 5463 5470
5571 5566 5560 5554 5548 5542 5536 5531 5525 5519 5515 5511 5506 5502 5497 5492 5488 5484 5479 5475 5472 5468 5464 5461 5457 5454 5450 5447 5443 5440 5437 5434 5431 5428 5425 5423 5421 5420 5420 5420 5420 5420 5419 5419 5420 5422 5424 5431 5439 5444 5451 5459